Wind_Speed
55 55 55 55 56 56 57 58 59 59 59 60 61 61 62 61 61 60 60 59 58 58 57 57 56 56 56 55 55 55 55 55 55 55 55 55 55 54
56 56 57 57 58 58 59 59 59 60 60 60 60 61 62 62 62 62 61 61 60 60 59 58 58 57 57 56 56 56 56 56 57 57 56 55 56 56
55 56 57 58 59 59 61 61 62 62 61 60 60 60 62 62 62 63 63 62 62 61 61 60 60 59 59 58 58 58 58 58 57 57 57 57 56 56
57 58 58 60 60 60 60 62 62 63 63 62 60 60 61 61 62 62 63 63 64 64 63 62 62 61 61 61 60 60 59 59 58 58 58 59 58 58
58 59 60 61 61 62 62 63 63 63 65 65 63 62 62 61 61 62 62 63 65 66 66 65 64 63 63 63 62 62 61 61 61 60 59 59 59 59
58 59 60 61 61 62 62 63 64 64 64 65 65 65 64 64 64 63 63 63 65 65 66 66 66 65 64 64 63 63 63 63 62 62 61 61 60 60
59 60 60 60 60 61 62 63 63 63 63 64 64 64 65 65 64 64 63 64 64 64 65 66 67 67 67 66 66 65 65 65 64 64 64 64 63 62
60 61 61 62 61 62 62 62 62 63 63 63 63 64 64 64 65 65 65 65 64 64 65 64 66 67 67 68 67 67 66 66 65 65 65 65 65 64
61 61 61 61 62 63 63 63 62 63 63 63 63 63 63 64 65 65 65 64 64 64 65 65 65 66 67 67 67 67 67 67 66 66 66 66 65 65
60 61 61 62 63 63 63 63 63 63 63 63 63 63 63 63 64 64 64 64 63 64 65 65 65 66 66 67 67 67 67 67 67 66 66 66 66 66
60 60 61 62 62 64 64 63 63 63 63 63 63 63 63 63 63 64 63 63 63 63 64 66 65 66 66 67 68 68 68 68 68 68 68 67 67 66
59 60 60 61 61 62 63 63 62 62 62 62 62 62 62 63 63 63 63 63 62 62 63 64 65 66 65 65 66 67 68 68 68 68 68 68 67 67
58 59 59 60 60 60 61 61 61 61 61 61 62 62 62 62 62 62 63 63 62 62 63 64 65 66 66 65 65 66 66 67 68 68 68 68 68 67
57 58 58 59 59 60 60 60 60 61 61 61 62 62 61 61 62 62 63 63 62 62 63 64 64 65 66 66 65 66 66 66 67 67 67 67 67 67
55 56 57 58 59 59 60 60 60 61 61 61 61 61 61 61 61 62 63 63 63 62 63 63 63 64 64 63 63 63 64 64 65 65 65 65 65 66
53 54 55 56 57 58 58 59 60 60 61 61 61 61 61 61 61 61 62 63 62 61 62 62 62 62 62 62 62 62 63 62 62 63 63 63 63 64
52 53 53 54 55 56 57 57 58 58 59 60 60 60 60 61 61 61 61 61 61 60 60 61 61 61 61 60 61 61 61 60 60 60 60 60 60 60
51 51 52 53 53 54 54 55 55 56 56 58 58 59 59 59 59 59 59 59 59 59 59 58 58 58 58 58 58 58 58 57 57 57 58 58 58 58
49 49 50 50 51 51 52 53 52 53 53 54 55 55 55 55 55 55 55 55 55 55 56 56 56 55 55 55 54 55 55 55 55 55 55 55 55 55
47 47 48 48 48 49 49 50 50 50 50 50 50 51 51 50 50 51 51 52 52 52 52 53 53 52 52 52 51 52 53 53 53 53 54 54 54 54
46 46 46 46 46 46 46 46 47 47 47 47 47 47 47 48 48 49 49 49 50 50 50 49 49 49 49 49 48 48 49 50 51 51 51 52 52 52
45 45 44 44 44 44 44 44 44 45 45 45 45 45 45 45 45 45 45 46 46 46 46 46 46 45 45 45 45 45 45 46 47 47 48 49 49 48
44 44 44 43 42 42 42 42 42 43 43 43 43 43 43 43 43 44 43 43 43 43 43 43 43 43 43 43 42 42 42 43 44 45 45 46 46 46
Wind_Direction
259 259 259 260 260 261 261 262 262 262 262 262 262 261 261 260 260 259 260 259 260 260 260 260 260 260 260 260 260 260 261 261 261 262 262 263 264 264
259 259 260 260 260 261 262 262 263 263 263 263 263 262 261 260 260 259 260 260 259 259 260 260 260 260 260 259 259 260 260 261 262 262 262 263 263 264
260 260 260 261 261 262 263 263 263 263 263 263 262 262 262 261 260 260 260 260 260 260 260 260 260 260 260 260 260 260 260 261 262 263 262 262 263 263
261 261 261 262 262 263 263 264 264 263 262 262 262 263 263 262 262 262 261 260 260 260 260 260 260 260 260 260 260 260 260 261 261 262 263 263 263 263
262 262 263 263 263 263 263 264 264 264 263 262 262 262 262 262 262 262 262 262 262 261 260 260 261 261 260 261 261 260 260 261 261 262 263 263 263 263
263 263 264 264 264 264 264 265 265 264 264 263 262 262 262 262 262 262 262 262 262 261 261 260 261 261 261 261 261 261 262 262 262 262 262 263 263 264
264 263 263 264 264 264 264 264 264 264 264 263 262 262 262 262 262 262 262 262 262 261 261 260 260 261 261 262 262 262 262 262 262 263 262 263 263 264
264 264 264 264 264 264 264 263 263 263 263 263 262 262 262 262 263 263 263 262 262 262 262 262 262 261 261 261 262 262 262 262 262 263 263 263 263 263
264 264 264 265 265 265 265 264 263 264 264 264 263 263 263 263 264 264 263 263 262 262 262 262 263 262 262 262 262 262 262 262 262 262 263 263 263 264
264 265 265 265 265 265 265 264 263 264 264 264 263 264 264 264 264 264 263 262 262 262 262 263 263 264 263 263 262 262 262 262 262 262 262 263 263 263
265 265 266 266 266 265 265 264 263 263 264 264 264 263 264 264 264 263 262 262 262 262 263 264 263 263 263 263 262 262 262 262 262 262 262 262 263 263
266 266 267 266 266 266 265 265 264 263 264 263 263 264 264 264 263 264 263 263 262 262 263 264 264 263 264 263 263 263 262 262 262 262 262 262 262 263
267 267 267 266 265 265 265 265 264 263 263 263 263 263 263 263 263 262 262 262 263 263 263 264 264 264 264 264 263 264 263 262 262 262 262 262 262 263
268 267 267 265 265 264 264 264 264 263 263 263 263 262 263 263 263 262 262 263 264 264 264 264 264 264 265 265 264 263 263 263 262 262 262 262 262 262
269 268 267 266 266 265 264 264 264 264 263 263 263 263 263 263 262 262 263 264 264 263 264 264 265 265 265 265 264 264 264 263 263 262 262 261 261 262
270 269 268 267 266 265 265 265 265 264 264 263 263 263 263 263 263 263 264 264 264 264 265 265 265 265 265 265 265 265 264 264 263 262 262 261 261 261
270 269 269 268 266 265 265 265 265 265 264 264 263 263 263 264 263 264 264 264 264 264 265 265 265 265 265 265 265 265 264 264 263 262 262 262 261 261
272 271 270 269 267 266 265 264 265 265 264 264 264 264 264 264 264 264 263 264 264 264 265 265 265 265 264 264 265 265 264 263 261 261 261 261 261 261
272 272 270 269 268 266 265 264 264 264 264 264 264 264 264 264 264 263 264 264 264 265 265 265 265 265 264 264 263 264 264 262 262 261 261 261 261 262
272 272 270 268 267 266 265 264 264 264 264 264 264 264 263 264 264 264 264 264 264 265 265 265 265 265 264 263 263 262 262 262 261 261 261 261 262 263
271 271 270 269 267 265 264 263 263 263 264 264 264 263 263 263 264 264 264 264 264 264 264 263 264 263 262 262 262 262 261 261 261 261 261 262 263 264
270 269 269 269 268 265 264 263 263 263 263 263 263 263 263 263 263 264 264 264 264 263 263 262 262 262 262 262 262 262 261 261 261 262 263 264 264 263
270 269 268 268 267 266 265 264 264 264 264 264 264 263 263 263 264 264 264 264 263 262 261 261 261 261 262 262 261 261 261 261 262 263 264 264 264 264
Height
5642 5644 5646 5647 5648 5650 5651 5652 5654 5655 5658 5659 5659 5660 5660 5662 5663 5664 5667 5668 5670 5672 5673 5675 5676 5677 5678 5679 5681 5681 5682 5684 5685 5687 5688 5690 5691 5692
5627 5629 5630 5632 5633 5634 5635 5636 5637 5638 5640 5643 5643 5643 5644 5645 5647 5648 5650 5652 5654 5655 5657 5659 5661 5662 5663 5664 5666 5667 5668 5669 5670 5672 5673 5674 5676 5677
5612 5613 5615 5616 5617 5618 5619 5620 5621 5621 5623 5626 5626 5627 5627 5629 5630 5632 5634 5636 5637 5639 5641 5643 5644 5646 5647 5649 5650 5651 5653 5654 5655 5656 5657 5659 5660 5662
5597 5598 5599 5600 5601 5602 5602 5603 5604 5604 5606 5608 5610 5610 5611 5612 5614 5615 5617 5619 5621 5622 5624 5626 5627 5629 5631 5632 5633 5635 5637 5638 5639 5641 5642 5644 5645 5646
5581 5582 5583 5583 5584 5585 5585 5586 5586 5587 5588 5590 5593 5593 5594 5595 5597 5599 5600 5602 5603 5605 5606 5608 5610 5612 5614 5615 5616 5618 5620 5622 5624 5625 5626 5627 5629 5630
5565 5565 5566 5566 5567 5567 5568 5568 5569 5569 5570 5572 5574 5576 5577 5578 5579 5581 5583 5584 5586 5587 5588 5590 5592 5593 5596 5598 5599 5601 5602 5604 5606 5607 5609 5610 5612 5613
5548 5548 5549 5549 5549 5550 5550 5551 5551 5552 5553 5554 5556 5558 5559 5560 5562 5563 5565 5566 5567 5568 5570 5572 5574 5576 5577 5579 5580 5582 5584 5586 5588 5589 5591 5593 5594 5596
5531 5531 5532 5532 5532 5532 5533 5533 5534 5535 5536 5537 5539 5540 5542 5542 5544 5545 5546 5548 5550 5552 5551 5553 5554 5556 5558 5560 5562 5563 5565 5567 5569 5571 5572 5574 5576 5577
5514 5514 5514 5514 5514 5515 5515 5515 5516 5517 5519 5520 5521 5523 5524 5525 5526 5527 5528 5529 5531 5532 5532 5534 5535 5536 5538 5540 5542 5543 5545 5547 5550 5551 5553 5555 5557 5559
5496 5496 5497 5497 5496 5496 5497 5497 5498 5500 5501 5502 5504 5506 5506 5506 5507 5508 5508 5510 5512 5512 5512 5515 5516 5518 5519 5521 5522 5524 5526 5527 5529 5531 5534 5536 5538 5539
5478 5479 5479 5479 5479 5478 5479 5480 5481 5482 5482 5483 5485 5486 5487 5487 5487 5488 5490 5491 5493 5494 5493 5495 5497 5498 5500 5502 5503 5504 5505 5507 5509 5511 5513 5516 5517 5519
5461 5461 5461 5460 5460 5459 5460 5461 5463 5464 5465 5466 5467 5468 5469 5469 5469 5470 5471 5472 5474 5476 5475 5475 5477 5477 5480 5483 5483 5484 5485 5487 5489 5491 5493 5495 5497 5498
5443 5443 5442 5442 5442 5442 5442 5443 5445 5446 5446 5447 5448 5450 5450 5451 5451 5452 5453 5454 5455 5457 5457 5456 5457 5458 5459 5463 5464 5465 5465 5466 5468 5471 5472 5475 5476 5478
5425 5424 5424 5424 5424 5424 5424 5425 5426 5427 5428 5429 5430 5431 5432 5433 5434 5434 5435 5435 5436 5437 5437 5437 5437 5438 5439 5441 5444 5445 5445 5446 5448 5450 5452 5454 5456 5458
5407 5406 5406 5406 5405 5406 5406 5407 5407 5408 5409 5410 5412 5413 5414 5414 5414 5415 5416 5416 5417 5418 5418 5418 5418 5419 5419 5421 5423 5425 5426 5427 5428 5430 5432 5434 5436 5438
5389 5388 5388 5387 5387 5388 5388 5388 5389 5390 5391 5392 5394 5394 5395 5395 5396 5397 5398 5398 5399 5400 5399 5399 5399 5400 5401 5402 5404 5406 5407 5408 5410 5411 5413 5415 5417 5418
5372 5371 5370 5370 5370 5370 5370 5370 5371 5372 5373 5374 5375 5376 5377 5377 5378 5379 5379 5380 5381 5382 5382 5382 5381 5382 5383 5384 5386 5387 5388 5390 5391 5393 5394 5397 5399 5400
5354 5354 5353 5353 5352 5353 5353 5353 5354 5354 5355 5356 5357 5358 5358 5359 5360 5360 5361 5362 5363 5364 5364 5364 5364 5365 5366 5368 5368 5369 5370 5372 5373 5375 5376 5379 5382 5383
5338 5337 5337 5336 5336 5336 5336 5337 5338 5338 5339 5339 5340 5340 5341 5342 5343 5343 5344 5345 5346 5347 5347 5347 5347 5348 5349 5352 5353 5353 5354 5355 5356 5358 5360 5362 5365 5367
5322 5321 5321 5320 5320 5320 5320 5321 5322 5322 5322 5323 5323 5324 5325 5326 5326 5327 5328 5329 5330 5330 5331 5332 5332 5332 5333 5335 5337 5338 5337 5338 5340 5341 5343 5345 5348 5349
5307 5306 5306 5305 5305 5305 5305 5306 5306 5307 5307 5308 5308 5309 5309 5310 5311 5312 5313 5313 5313 5314 5316 5317 5317 5317 5317 5319 5321 5323 5323 5323 5324 5326 5328 5330 5332 5333
5292 5291 5291 5291 5291 5291 5291 5291 5292 5292 5293 5293 5294 5294 5295 5296 5297 5297 5298 5298 5299 5299 5301 5302 5302 5302 5303 5305 5306 5308 5309 5309 5310 5311 5313 5314 5315 5317
5277 5277 5277 5277 5277 5277 5277 5277 5278 5278 5279 5279 5280 5280 5281 5282 5282 5283 5283 5284 5285 5286 5286 5287 5288 5289 5290 5291 5292 5294 5295 5296 5297 5298 5299 5299 5300 5302